Weather History for Covington, KY

Change the Weather History Date:

Thursday, December 19, 2013

  Actual Average Record
Temperature  
Mean Temperature 46 °F 33 °F  
Max Temperature 55 °F 40 °F 67 °F (1877)
Min Temperature 36 °F 26 °F -7 °F (1963)
Degree Days  
Heating Degree Days 19 32  
Month to date heating degree days 592 561  
Since 1 July heating degree days 1628 1521  
Cooling Degree Days 0 0  
Month to date cooling degree days 0 0  
Year to date cooling degree days 1150 1121  
Moisture  
Dew Point 30 °F    
Average Humidity 58    
Maximum Humidity 68    
Minimum Humidity 48    
Precipitation  
Precipitation 0.00 in 0.10 in 2.03 in (2002)
Month to date precipitation 2.33 2.05  
Year to date precipitation 46.90 41.20  
Snow  
Snow 0.00 in 0.20 in 2.90 in (2009)
Month to date snowfall 10.1 2.5  
Since 1 July snowfall 12.5 3.3  
Snow Depth 0.00 in    
Sea Level Pressure  
Sea Level Pressure 30.05 in    
Wind  
Wind Speed 10 mph (SSW)    
Max Wind Speed 18 mph    
Max Gust Speed 24 mph    
Visibility 10 miles    
Events      
T = Trace of Precipitation, MM = Missing Value Source: NWS Daily Summary

Daily Weather History Graph

Daily Weather History Graph

Search for Another Location

Airport:

Trip Planner

Search our weather history database for the weather conditions in past years. The results will help you decide how hot, cold, wet, or windy it might be!

Date:

Astronomy

Dec. 19, 2013 Rise Set
Actual Time 7:53 AM EST 5:18 PM EST
Civil Twilight 7:23 AM EST 5:48 PM EST
Nautical Twilight 6:49 AM EST 6:22 PM EST
Astronomical Twilight 6:16 AM EST 6:54 PM EST
Moon 7:42 PM EST (12/19) 9:12 AM EST (12/19)
Length of Visible Light 10h 25m
Length of Day
9h 25m
Waning Gibbous, 95% of the Moon is Illuminated
Dec 19
Waning Gibbous
Dec 25
Last Quarter
Jan 1
New
Jan 7
First Quarter
Jan 15
Full

Hourly Weather History & Observations

Time (EST) Temp. Windchill Dew Point Humidity Pressure Visibility Wind Dir Wind Speed Gust Speed Precip Events Conditions
12:52 AM 37.0 °F 29.8 °F 19.0 °F 48% 30.06 in 10.0 mi SSW 10.4 mph - N/A   Partly Cloudy
1:52 AM 37.9 °F 32.1 °F 19.0 °F 47% 30.06 in 10.0 mi SW 8.1 mph - N/A   Clear
2:52 AM 37.0 °F 30.4 °F 19.9 °F 50% 30.07 in 10.0 mi SSW 9.2 mph - N/A   Partly Cloudy
3:52 AM 37.0 °F 30.4 °F 19.9 °F 50% 30.08 in 10.0 mi SSW 9.2 mph - N/A   Partly Cloudy
4:52 AM 37.9 °F 31.5 °F 19.9 °F 48% 30.08 in 10.0 mi SSW 9.2 mph - N/A   Clear
5:52 AM 37.9 °F 30.9 °F 19.9 °F 48% 30.09 in 10.0 mi SSW 10.4 mph - N/A   Scattered Clouds
6:52 AM 37.9 °F 31.5 °F 21.0 °F 51% 30.09 in 10.0 mi SSW 9.2 mph - N/A   Scattered Clouds
7:52 AM 39.9 °F 32.5 °F 23.0 °F 51% 30.09 in 10.0 mi SSW 12.7 mph - N/A   Mostly Cloudy
8:52 AM 41.0 °F 35.2 °F 24.1 °F 51% 30.09 in 10.0 mi SSW 9.2 mph 18.4 mph N/A   Mostly Cloudy
9:52 AM 44.1 °F 38.6 °F 27.0 °F 51% 30.10 in 10.0 mi SSW 10.4 mph - N/A   Mostly Cloudy
10:52 AM 48.9 °F - 30.9 °F 50% 30.10 in 10.0 mi SSW 12.7 mph 19.6 mph N/A   Mostly Cloudy
11:52 AM 50.0 °F - 33.1 °F 52% 30.09 in 10.0 mi SSW 11.5 mph 18.4 mph N/A   Mostly Cloudy
12:52 PM 52.0 °F - 34.0 °F 50% 30.06 in 10.0 mi SSW 10.4 mph - N/A   Overcast
1:52 PM 53.1 °F - 36.0 °F 52% 30.04 in 10.0 mi South 11.5 mph 24.2 mph N/A   Overcast
2:52 PM 55.0 °F - 37.0 °F 51% 30.02 in 10.0 mi South 11.5 mph - N/A   Overcast
3:52 PM 55.0 °F - 37.0 °F 51% 30.02 in 10.0 mi SSW 10.4 mph - N/A   Overcast
4:52 PM 54.0 °F - 36.0 °F 51% 30.02 in 10.0 mi South 10.4 mph - N/A   Overcast
5:52 PM 52.0 °F - 37.0 °F 57% 30.01 in 10.0 mi South 8.1 mph - N/A   Overcast
6:52 PM 52.0 °F - 39.9 °F 63% 30.01 in 10.0 mi South 10.4 mph - N/A   Overcast
7:52 PM 52.0 °F - 41.0 °F 66% 30.01 in 10.0 mi South 9.2 mph - N/A   Overcast
8:52 PM 52.0 °F - 41.0 °F 66% 30.00 in 10.0 mi South 8.1 mph - N/A   Overcast
9:52 PM 52.0 °F - 39.0 °F 61% 29.98 in 10.0 mi South 11.5 mph - N/A   Overcast
10:52 PM 53.1 °F - 37.0 °F 55% 29.98 in 10.0 mi South 9.2 mph - N/A   Overcast
11:52 PM 54.0 °F - 36.0 °F 51% 29.97 in 10.0 mi South 9.2 mph - N/A   Overcast